Regional Weather Roundup
Issued by NWS

Home | Current Version | Previous Version | Text Only | Print | Product List | Glossary Off
Versions: 1 2 3 4 5 6 7 8 9 10 11 12 13 14 15 16 17 18 19 20 21 22 23 24 25 26 27 28 29 30 31 32 33 34 35 36 37 38 39 40 41 42 43 44 45 46 47 48 49 50

410
ASUS44 KMEG 250110
RWRTN
TENNESSEE HOURLY STATE WEATHER ROUNDUP
NATIONAL WEATHER SERVICE MEMPHIS TN
700 PM CST FRI FEB 24 2017

TNZ002-004-019-021-049-052-054-088>092-250200-
WEST TENNESSEE

CITY           SKY/WX    TMP DP  RH WIND       PRES   REMARKS
MEMPHIS INTL   MOCLDY    64  55  72 W5        29.72R
NWS MEMPHIS      N/A     64 N/A N/A MISG        N/A
JACKSON        MOCLDY    65  57  75 SW9       29.71R
UNION CITY     MOCLDY    61  45  55 W14       29.69R
PARIS          MOCLDY    61  54  77 SW9       29.69R
HUNTINGDON     CLOUDY    64  55  72 SW8       29.68S
$$

TNZ008-025-027-028-033-062-065-066-250200-
NORTH MIDDLE TENNESSEE

CITY           SKY/WX    TMP DP  RH WIND       PRES   REMARKS
NASHVILLE      MOCLDY    74  50  42 NW13G20   29.67R
PORTLAND       MOCLDY    66  54  63 W12G20    29.66R
CLARKSVILLE    CLOUDY    66  51  58 W12G23    29.67S
SMYRNA         MOCLDY    73  54  51 SW7       29.67R
COOKEVILLE     CLOUDY    70  54  56 MISG      29.68S
GALLATIN       CLOUDY    73  54  49 W8G17     29.67R
CROSSVILLE     PTCLDY    68  51  54 S6        29.74S
$$

TNZ061-075-076-078-094-096-097-250200-
SOUTH MIDDLE TENNESSEE

CITY           SKY/WX    TMP DP  RH WIND       PRES   REMARKS
FAYETTEVILLE   PTCLDY    72  54  53 SW10G18   29.71S
TULLAHOMA      PTCLDY    70  52  52 S9        29.71F
WINCHESTER     PTCLDY    68  54  60 S7        29.72S
MCMINNVILLE    PTCLDY    72  54  53 S3        29.70S
COLUMBIA       MOCLDY    72  54  53 SW8       29.67R
SHELBYVILLE    PTCLDY    72  55  56 S10       29.70S
$$

TNZ017-018-042-046-047-250200-
NORTHEAST TENNESSEE

CITY           SKY/WX    TMP DP  RH WIND       PRES   REMARKS
TRI CITIES     PTCLDY    68  50  52 S7        29.74R
ELIZABETHTON   CLEAR     66  50  55 CALM      29.75R
$$

TNZ012-013-036-069-073-074-250200-
CENTRAL EAST TENNESSEE

CITY           SKY/WX    TMP DP  RH WIND       PRES   REMARKS
KNOXVILLE      PTCLDY    68  50  52 S9        29.72R
OAK RIDGE      MOCLDY    72  51  47 S5        29.73R
GATLINBURG     CLEAR     70  48  46 SW7       29.72R
MORRISTOWN     PTCLDY    70  48  46 W6        29.72R
JACKSBORO      CLOUDY    72  52  49 CALM      29.74R
$$

TNZ083-085-099-250200-
SOUTHEAST TENNESSEE

CITY           SKY/WX    TMP DP  RH WIND       PRES   REMARKS
CHATTANOOGA    MOCLDY    73  52  47 S5        29.73R
$$

SKY/WX REPORTED AS FAIR MEANS FEW OR NO CLOUDS BELOW
12 THOUSAND FEET.





USA.gov is the U.S. government's official web portal to all federal, state and local government web resources and services.